Location: Maccacari
(45.1333°N, 11.1333°E)
Time: 01:47:42
(UTC+00:00)

A-11 Canister half - Pass Details

Date: 25 January 2021
Orbit: 1525 x 1684 km, 47.3° (Epoch: 07 March)

Event Time Altitude Azimuth Distance (km) Brightness Sun altitude
Rises 18:14:52 0° 288° (WNW) 4,730 12.7 -21.3°
Reaches altitude 10° 18:17:53 10° 288° (WNW) 3,763 12.0 -21.9°
Maximum altitude 18:27:29 82° 203° (SSW) 1,623 9.0 -23.6°
Enters shadow 18:32:48 32° 120° (ESE) 2,513 9.6 -24.5°
Drops below altitude 10° 18:37:24 10° 117° (ESE) 3,882 - -25.3°
Sets 18:40:34 0° 117° (ESE) 4,886 - -25.9°
